Regional Weather Roundup
Issued by NWS New Orleans/Baton Rouge, LA

Home | Current Version | Previous Version | Text Only | Print | Product List | Glossary On
Versions: 1 2 3 4 5 6 7 8 9 10 11 12 13 14 15 16 17 18 19 20 21 22 23 24 25 26 27 28 29 30 31 32 33 34 35 36 37 38 39 40 41 42 43 44 45 46 47 48 49 50
051
ASUS44 KLIX 310705
RWRLIX
NEW ORLEANS REGIONAL WEATHER ROUNDUP
NATIONAL WEATHER SERVICE NEW ORLEANS LA
100 AM CST SAT JAN 31 2015

NOTE: "FAIR" INDICATES FEW OR NO CLOUDS BELOW 12,000 FEET WITH NO
      SIGNIFICANT WEATHER AND/OR OBSTRUCTIONS TO VISIBILITY.
      SKY/WX - SKY CONDITION AND SIGNIFICANT WEATHER.
      TMP - AIR TEMPERATURE.     DP    - DEWPOINT TEMPERATURE.
      RH  - RELATIVE HUMIDITY.   PRES  - PRESSURE.
      HI  - HEAT INDEX.          WCI   - WIND CHILL INDEX.

*  THESE STATIONS ARE NOT NWS OR FAA STATIONS AND ARE NOT UNDER
   NWS QUALITY CONTROL.

LAZ038-040-048-061>063-065>067-069-310800-
SOUTHEAST LOUISIANA

CITY           SKY/WX    TMP DP  RH WIND       PRES   REMARKS
N.O. AUDUBON   NOT AVBL
N.O. INTL ARPT PTCLDY    50  36  58 E7        30.31F
N.O. LAKEFRONT PTCLDY    53  36  52 E16       30.32F
N.O. DOWNTOWN* NOT AVBL
SLIDELL        PTCLDY    38  33  82 NE3       30.32F
BATON ROUGE    CLEAR     41  32  70 NE5       30.33F
BOOTHVILLE     PTCLDY    53  42  66 NE9       30.31F
BELLE CHASSE   MOCLDY    45  35  68 NE6       30.31F
BOGALUSA*        N/A     37  32  85 CALM      30.35F
GALLIANO*      MOSUNNY   52  42  69 MISG      30.31F
NEW ROADS*       N/A     41  32  70 NE6       30.33F
GONZALES*        N/A     44  34  66 CALM      30.32F
HAMMOND*       CLEAR     41  32  70 CALM      30.34F
HOUMA*         PTCLDY    44  38  78 NE5       30.31S
PORT FOURCHON* SUNNY     55  43  62 NE13G18   30.33F

$$

MSZ070-080>082-310800-
SOUTHERN MISSISSIPPI

CITY           SKY/WX    TMP DP  RH WIND       PRES   REMARKS
MCCOMB         PTCLDY    42  30  62 NE6       30.33F
GULFPORT       CLEAR     41  32  70 N3        30.33F
BILOXI         CLEAR     43  33  67 N6        30.33F
PASCAGOULA     CLEAR     38  32  79 N5        30.33F WCI  34

$$

COASTAL OBSERVATIONS
LAKE AND NEARSHORE STATIONS

STATION/POSITION TIME  TEMP    WIND        PRES    WAVE
                       AIR SEA DIR/SP/G            HT/PER
                 (UTC) (F)     (DEG/KT/KT) (MB)    (FT/S)
PASCAGOULA       0600   45      10/  7/  9 1026.5
WAVELAND YACHT   0600   47      50/ 12/ 14 1026.2
GRAND ISLE       0600   54 63   60/  8/ 12 1026.6
SOUTHWEST PASS   0600   52 46   20/ 11/ 12 1026.1
NEW CANAL        0600   53 55   70/ 16/ 18 1026.7
SHELL BEACH      0600   53 56   50/ 15/ 17 1026.3

OFFSHORE STATIONS

STATION/POSITION TIME  TEMP    WIND        PRES    WAVE
                       AIR SEA DIR/SP/G            HT/PER
                 (UTC) (F)     (DEG/KT/KT) (MB)    (FT/S)
64 S DAUPHIN ISL 0605   59 68   60/ 17/ 21 1025.8    4/ 5

$$




USA.gov is the U.S. government's official web portal to all federal, state and local government web resources and services.